Russellville, AR

9:58 AM CDT on October 16, 2019 (GMT -0500)
Russellville Regional

Weather History for KRUE - August, 2019

Change the Weather History Date:

Saturday, August 24, 2019

  Actual Average (WUND) Record (WUND)
Temperature  
Mean Temperature 76 °F -  
Max Temperature 81 °F - - (-1)
Min Temperature 73 °F - - (-1)
Cooling Degree Days 12    
Growing Degree Days 26 (Base 50)    
Moisture  
Dew Point 71 °F    
Average Humidity 87    
Maximum Humidity 97    
Minimum Humidity 76    
Precipitation  
Precipitation 0.32 in - - ()
Sea Level Pressure  
Sea Level Pressure 29.98 in    
Wind  
Wind Speed 4 mph (East)    
Max Wind Speed 14 mph    
Max Gust Speed 21 mph    
Visibility 9 miles    
Events Rain    
Averages and records for this station are not official NWS values.
T = Trace of Precipitation, MM = Missing Value Source: NWS Daily Summary

Daily Weather History Graph

Daily Weather History Graph

Search for Another Location

Airport or City:

Astronomy

Aug. 24, 2019 Rise Set
Actual Time 6:38 AM CDT 7:50 PM CDT
Civil Twilight 6:12 AM CDT 8:16 PM CDT
Nautical Twilight 5:40 AM CDT 8:47 PM CDT
Astronomical Twilight 5:08 AM CDT 9:20 PM CDT
Moon 12:36 AM CDT (8/24) 3:00 PM CDT (8/24)
Length of Visible Light 14h 04m
Length of Day
13h 11m
Last Quarter, 39% of the Moon is Illuminated
Aug 24
Last Quarter
Aug 30
New
Sep 5
First Quarter
Sep 13
Full
Sep 21
Last Quarter

Hourly Weather History & Observations

Time (CDT) Temp. Heat Index Dew Point Humidity Pressure Visibility Wind Dir Wind Speed Gust Speed Precip Events Conditions
12:53 AM 75.9 °F - 72.0 °F 87% 29.96 in 10.0 mi Variable 6.9 mph - N/A   Mostly Cloudy
1:53 AM 75.9 °F - 72.0 °F 87% 29.97 in 10.0 mi Calm Calm - N/A   Overcast
2:40 AM 75.0 °F - 72.0 °F 90% 30.00 in 10.0 mi Calm Calm - 0.02 in   Mostly Cloudy
2:53 AM 75.0 °F - 72.0 °F 90% 29.98 in 10.0 mi Calm Calm - 0.02 in   Overcast
3:53 AM 75.0 °F - 72.0 °F 90% 29.97 in 10.0 mi Calm Calm - N/A   Overcast
4:53 AM 73.9 °F - 73.0 °F 97% 29.96 in 6.0 mi East 3.5 mph - 0.07 in Rain Light Rain
5:06 AM 73.9 °F - 72.0 °F 93% 29.98 in 9.0 mi East 6.9 mph - 0.01 in Rain Light Rain
5:37 AM 75.0 °F - 72.0 °F 90% 29.99 in 10.0 mi NE 3.5 mph - 0.01 in   Scattered Clouds
5:53 AM 75.0 °F - 72.0 °F 90% 29.97 in 10.0 mi East 3.5 mph - 0.01 in   Partly Cloudy
6:14 AM 73.9 °F - 72.0 °F 93% 30.00 in 10.0 mi East 3.5 mph - N/A   Mostly Cloudy
6:26 AM 73.9 °F - 72.0 °F 93% 30.00 in 10.0 mi Calm Calm - N/A   Overcast
6:48 AM 73.4 °F - 71.6 °F 94% 30.00 in 10.0 mi Calm Calm - N/A   Overcast
6:53 AM 73.9 °F - 72.0 °F 93% 29.98 in 10.0 mi Calm Calm - N/A   Overcast
7:31 AM 73.9 °F - 72.0 °F 93% 29.99 in 1.8 mi ENE 6.9 mph - 0.14 in Rain Heavy Rain
7:39 AM 73.9 °F - 72.0 °F 93% 30.00 in 1.0 mi East 4.6 mph - 0.20 in Rain Heavy Rain
7:46 AM 73.9 °F - 72.0 °F 93% 30.00 in 2.5 mi East 3.5 mph - 0.22 in Rain Rain
7:53 AM 73.9 °F - 72.0 °F 93% 29.98 in 6.0 mi Calm Calm - 0.22 in Rain Light Rain
8:03 AM 73.9 °F - 72.0 °F 93% 30.00 in 8.0 mi East 4.6 mph - 0.00 in   Overcast
8:11 AM 73.9 °F - 72.0 °F 93% 30.00 in 8.0 mi ESE 3.5 mph - 0.00 in   Overcast
8:43 AM 75.0 °F - 72.0 °F 90% 30.01 in 10.0 mi East 4.6 mph - 0.00 in   Overcast
8:53 AM 75.0 °F - 72.0 °F 90% 29.99 in 10.0 mi East 4.6 mph - 0.00 in   Overcast
9:23 AM 73.9 °F - 71.1 °F 91% 30.01 in 10.0 mi East 5.8 mph - N/A   Overcast
9:53 AM 73.9 °F - 70.0 °F 87% 30.00 in 10.0 mi ENE 5.8 mph - N/A   Overcast
10:20 AM 73.9 °F - 69.1 °F 85% 30.02 in 10.0 mi Variable 3.5 mph - N/A   Overcast
10:53 AM 75.0 °F - 70.0 °F 84% 30.01 in 10.0 mi East 9.2 mph - N/A   Overcast
11:53 AM 77.0 °F - 70.0 °F 79% 30.01 in 10.0 mi ENE 13.8 mph 20.7 mph N/A   Overcast
12:10 PM 78.1 °F - 71.1 °F 79% 30.03 in 10.0 mi East 9.2 mph - N/A   Overcast
12:53 PM 78.1 °F - 70.0 °F 76% 29.99 in 10.0 mi East 6.9 mph - N/A   Overcast
1:13 PM 78.1 °F - 71.1 °F 79% 30.01 in 10.0 mi East 8.1 mph - N/A   Overcast
2:53 PM 78.1 °F - 71.1 °F 79% 29.96 in 10.0 mi East 4.6 mph - N/A   Overcast
3:28 PM 79.0 °F - 72.0 °F 79% 29.97 in 10.0 mi East 8.1 mph - N/A   Overcast
3:53 PM 79.0 °F - 72.0 °F 79% 29.95 in 10.0 mi ENE 9.2 mph - N/A   Overcast
5:53 PM 80.1 °F 83.8 °F 72.0 °F 76% 29.93 in 10.0 mi East 5.8 mph - N/A   Partly Cloudy
6:42 PM 79.0 °F - 72.0 °F 79% 29.95 in 10.0 mi East 3.5 mph - N/A   Mostly Cloudy
6:53 PM 79.0 °F - 72.0 °F 79% 29.93 in 10.0 mi East 4.6 mph - N/A   Mostly Cloudy
7:10 PM 78.1 °F - 72.0 °F 81% 29.94 in 10.0 mi East 4.6 mph - N/A   Scattered Clouds
7:53 PM 77.0 °F - 72.0 °F 84% 29.93 in 10.0 mi ENE 8.1 mph - N/A   Mostly Cloudy
8:53 PM 75.9 °F - 71.1 °F 85% 29.97 in 10.0 mi East 6.9 mph - N/A   Overcast
9:03 PM 75.9 °F - 71.1 °F 85% 29.99 in 10.0 mi East 8.1 mph - N/A   Overcast
9:10 PM 75.9 °F - 71.1 °F 85% 29.99 in 10.0 mi East 5.8 mph - N/A   Overcast
9:17 PM 75.9 °F - 71.1 °F 85% 29.99 in 10.0 mi East 6.9 mph - N/A   Mostly Cloudy
9:36 PM 75.9 °F - 71.1 °F 85% 29.99 in 10.0 mi ENE 8.1 mph - N/A   Mostly Cloudy
9:53 PM 75.9 °F - 71.1 °F 85% 29.98 in 10.0 mi ENE 8.1 mph - N/A   Overcast
10:53 PM 75.0 °F - 70.0 °F 84% 29.97 in 9.0 mi East 4.6 mph - N/A   Overcast
11:32 PM 73.9 °F - 70.0 °F 87% 29.99 in 7.0 mi ENE 6.9 mph - N/A   Overcast
11:53 PM 73.9 °F - 70.0 °F 87% 29.96 in 8.0 mi ENE 4.6 mph - N/A   Overcast